Meteo Giornale » Osservazioni meteo Iran » Ahwaz
ore: 22:30 - Osservazioni Meteo Ahwaz
Lat. 31° 20' N Lon. 48° 40' E Alt. 20 metri s.l.m.
35 °C
Sereno
Temp. 24 Ore
31 °C
42 °C
Ovest/Nord-Ovest
16.7 Km/h
Dew point 9 °C
Umidità 20 %
Visibilità 10 Km
Il sole sorge alle ore 05:51
Il sole tramonta alle ore 18:39
| Data e Ora | Cielo e Fenomeni | T °C | DP °C | Um. % | Pres. hPa | Vis. km | Vento km/h | |
|---|---|---|---|---|---|---|---|---|
| Oggi h: 22:30 | Sereno | 35 | 9 | 20 | 1002 | 10 | O/NO 16.7 | |
| Oggi h: 22:00 | Sereno | 35 | 9 | 20 | 1002 | 10 | O/NO 14.8 | |
| Oggi h: 21:30 | Sereno | 36 | 9 | 19 | 1002 | 10 | O/NO 14.8 | |
| Oggi h: 21:00 | Sereno | 37 | 9 | 18 | 1002 | 10 | O/NO 18.5 | |
| Oggi h: 20:30 | Sereno | 37 | 8 | 17 | 1002 | 10 | O/NO 14.8 | |
| Oggi h: 20:00 | Sereno | 37 | 9 | 18 | 1002 | 10 | O/NO 14.8 | |
| Oggi h: 19:30 | Sereno | 38 | 9 | 17 | 1002 | 10 | O/NO 13 | |
| Oggi h: 19:00 | Sereno | 38 | 9 | 17 | 1001 | 10 | O/NO 13 | |
| Oggi h: 18:30 | Sereno | 39 | 8 | 15 | 1001 | 10 | O/NO 14.8 | |
| Oggi h: 18:00 | Sereno | 41 | 7 | 12 | 1001 | 10 | O/NO 22.2 | |
| Oggi h: 17:30 | Sereno | 41 | 7 | 12 | 1001 | 10 | O/NO 20.3 | |
| Oggi h: 17:00 | Sereno | 42 | 8 | 13 | 1002 | 10 | O/NO 22.2 | |
| Oggi h: 16:30 | Sereno | 42 | 8 | 13 | 1002 | 10 | O/NO 22.2 | |
| Oggi h: 16:00 | Sereno | 42 | 8 | 13 | 1002 | 10 | O/NO 25.9 | |
| Oggi h: 15:30 | Sereno | 42 | 8 | 13 | 1002 | 10 | O/NO 22.2 | |
| Oggi h: 15:00 | Sereno | 42 | 8 | 13 | 1002 | 10 | O/NO 25.9 | |
| Oggi h: 14:30 | Sereno | 42 | 8 | 13 | 1002 | 10 | N 20.3 | |
| Oggi h: 14:00 | Sereno | 42 | 8 | 13 | 1003 | 10 | O/NO 22.2 | |
| Oggi h: 13:30 | Sereno | 42 | 7 | 12 | 1003 | 10 | N 20.3 | |
| Oggi h: 13:00 | Sereno | 42 | 8 | 13 | 1003 | 10 | O/NO 16.7 | |
| Oggi h: 12:30 | Sereno | 41 | 7 | 12 | 1003 | 10 | NO 16.7 | |
| Oggi h: 12:00 | Sereno | 40 | 8 | 14 | 1003 | 10 | N/NO 11.1 | |
| Oggi h: 11:30 | Sereno | 40 | 8 | 14 | 1004 | 10 | N/NO 13 | |
| Oggi h: 11:00 | Sereno | 39 | 10 | 17 | 1004 | 10 | NO 9.3 | |
| Oggi h: 10:30 | Sereno | 38 | 11 | 19 | 1004 | 10 | N/NO 11.1 | |
| Oggi h: 10:00 | Sereno | 37 | 11 | 20 | 1004 | 10 | NO 14.8 | |
| Oggi h: 09:30 | Sereno | 36 | 11 | 22 | 1004 | 10 | NO 18.5 | |
| Oggi h: 09:00 | Sereno | 36 | 11 | 22 | 1004 | 10 | NO 13 | |
| Oggi h: 08:30 | Sereno | 35 | 11 | 23 | 1004 | 10 | O/NO 11.1 | |
| Oggi h: 08:00 | Sereno | 35 | 11 | 23 | 1004 | 10 | NO 11.1 | |
| Oggi h: 07:30 | Sereno | 34 | 11 | 24 | 1003 | 10 | NO 11.1 | |
| Oggi h: 07:00 | Sereno | 32 | 10 | 25 | 1003 | 10 | NO 7.4 | |
| Oggi h: 06:30 | Sereno | 31 | 9 | 25 | 1003 | 10 | NO 7.4 | |
| Oggi h: 06:00 | Sereno | 31 | 9 | 25 | 1003 | 10 | N 5.5 | |
| Oggi h: 05:30 | Sereno | 31 | 9 | 25 | 1003 | 10 | N/NO 7.4 | |
| Oggi h: 04:30 | Sereno | 32 | 8 | 22 | 1003 | 10 | N/NO 11.1 | |
| Oggi h: 03:30 | Sereno | 32 | 8 | 22 | 1003 | 10 | N 7.4 | |
| Oggi h: 02:30 | Sereno | 34 | 8 | 20 | 1002 | 10 | N/NO 18.5 | |
| Oggi h: 01:30 | Sereno | 34 | 7 | 18 | 1002 | 10 | NO 18.5 | |
| Oggi h: 00:30 | Sereno | 35 | 7 | 17 | 1002 | 10 | NO 29.6 | |
| Oggi h: 00:00 | Sereno | 36 | 6 | 15 | 1003 | 10 | NO 18.5 | |
| Ieri h: 23:30 | Sereno | 36 | 6 | 15 | 1002 | 10 | NO 18.5 | |



